Location: Key Biscayne
(25.6930°N, 80.1630°W)
Time: 00:52:08
(UTC-05:00)

N. Korean satellite - Pass Details

Date: 17 November 2017
Orbit: 460 x 514 km, 97.2° (Epoch: 24 November)

Event Time Altitude Azimuth Distance (km) Brightness Sun altitude
Rises 19:05:35 0° 192° (SSW) 2,469 10.5 -21.2°
Reaches altitude 10° 19:07:52 10° 207° (SSW) 1,602 9.7 -21.7°
Maximum altitude 19:10:42 24° 263° (W) 1,008 8.9 -22.4°
Drops below altitude 10° 19:13:33 10° 318° (NW) 1,622 9.6 -23.0°
Sets 19:15:54 0° 333° (NNW) 2,509 10.4 -23.5°
